Year,Month,Day,Hour,Minute,Value (Times are PST for temperature in C)
2013,07,23,00,00,14.40
2013,07,23,00,01,14.40
2013,07,23,00,02,14.40
2013,07,23,00,03,14.40
2013,07,23,00,04,14.30
2013,07,23,00,05,14.30
2013,07,23,00,06,14.30
2013,07,23,00,07,14.30
2013,07,23,00,08,14.30
2013,07,23,00,09,14.20
2013,07,23,00,10,14.20
2013,07,23,00,11,14.20
2013,07,23,00,12,14.20
2013,07,23,00,13,14.20
2013,07,23,00,14,14.10
2013,07,23,00,15,14.10
2013,07,23,00,16,14.10
2013,07,23,00,17,14.10
2013,07,23,00,18,14.10
2013,07,23,00,19,14.00
2013,07,23,00,20,14.00
2013,07,23,00,21,14.00
2013,07,23,00,22,14.00
2013,07,23,00,23,14.00
2013,07,23,00,24,13.90
2013,07,23,00,25,13.90
2013,07,23,00,26,13.90
2013,07,23,00,27,13.90
2013,07,23,00,28,13.90
2013,07,23,00,29,13.90
2013,07,23,00,30,13.90
2013,07,23,00,31,13.90
2013,07,23,00,32,13.90
2013,07,23,00,33,13.90
2013,07,23,00,34,13.90
2013,07,23,00,35,13.90
2013,07,23,00,36,13.90
2013,07,23,00,37,13.90
2013,07,23,00,38,13.90
2013,07,23,00,39,13.90
2013,07,23,00,40,13.90
2013,07,23,00,41,13.90
2013,07,23,00,42,13.90
2013,07,23,00,43,13.90
2013,07,23,00,44,13.90
2013,07,23,00,45,13.90
2013,07,23,00,46,13.90
2013,07,23,00,47,13.90
2013,07,23,00,48,13.90
2013,07,23,00,49,13.90
2013,07,23,00,50,13.90
2013,07,23,00,51,13.90
2013,07,23,00,52,13.90
2013,07,23,00,53,13.90
2013,07,23,00,54,13.90
2013,07,23,00,55,13.80
2013,07,23,00,56,13.80
2013,07,23,00,57,13.80
2013,07,23,00,58,13.80
2013,07,23,00,59,13.80
2013,07,23,01,00,13.80
2013,07,23,01,01,13.80
2013,07,23,01,02,13.80
2013,07,23,01,03,13.80
2013,07,23,01,04,13.80
2013,07,23,01,05,13.80
2013,07,23,01,06,13.80
2013,07,23,01,07,13.70
2013,07,23,01,08,13.70
2013,07,23,01,09,13.70
2013,07,23,01,10,13.70
2013,07,23,01,11,13.70
2013,07,23,01,12,13.70
2013,07,23,01,13,13.70
2013,07,23,01,14,13.60
2013,07,23,01,15,13.60
2013,07,23,01,16,13.60
2013,07,23,01,17,13.60
2013,07,23,01,18,13.60
2013,07,23,01,19,13.60
2013,07,23,01,20,13.60
2013,07,23,01,21,13.60
2013,07,23,01,22,13.50
2013,07,23,01,23,13.50
2013,07,23,01,24,13.50
2013,07,23,01,25,13.50
2013,07,23,01,26,13.50
2013,07,23,01,27,13.50
2013,07,23,01,28,13.50
2013,07,23,01,29,13.40
2013,07,23,01,30,13.40
2013,07,23,01,31,13.40
2013,07,23,01,32,13.40
2013,07,23,01,33,13.40
2013,07,23,01,34,13.40
2013,07,23,01,35,13.40
2013,07,23,01,36,13.40
2013,07,23,01,37,13.30
2013,07,23,01,38,13.30
2013,07,23,01,39,13.30
2013,07,23,01,40,13.30
2013,07,23,01,41,13.30
2013,07,23,01,42,13.30
2013,07,23,01,43,13.30
2013,07,23,01,44,13.30
2013,07,23,01,45,13.30
2013,07,23,01,46,13.30
2013,07,23,01,47,13.30
2013,07,23,01,48,13.30
2013,07,23,01,49,13.30
2013,07,23,01,50,13.20
2013,07,23,01,51,13.20
2013,07,23,01,52,13.20
2013,07,23,01,53,13.20
2013,07,23,01,54,13.20
2013,07,23,01,55,13.20
2013,07,23,01,56,13.20
2013,07,23,01,57,13.20
2013,07,23,01,58,13.20
2013,07,23,01,59,13.20
2013,07,23,02,00,13.20
2013,07,23,02,01,13.20
2013,07,23,02,02,13.20
2013,07,23,02,03,13.20
2013,07,23,02,04,13.20
2013,07,23,02,05,13.20
2013,07,23,02,06,13.20
2013,07,23,02,07,13.20
2013,07,23,02,08,13.20
2013,07,23,02,09,13.20
2013,07,23,02,10,13.20
2013,07,23,02,11,13.20
2013,07,23,02,12,13.20
2013,07,23,02,13,13.20
2013,07,23,02,14,13.20
2013,07,23,02,15,13.20
2013,07,23,02,16,13.20
2013,07,23,02,17,13.20
2013,07,23,02,18,13.20
2013,07,23,02,19,13.20
2013,07,23,02,20,13.20
2013,07,23,02,21,13.20
2013,07,23,02,22,13.20
2013,07,23,02,23,13.20
2013,07,23,02,24,13.20
2013,07,23,02,25,13.20
2013,07,23,02,26,13.20
2013,07,23,02,27,13.20
2013,07,23,02,28,13.20
2013,07,23,02,29,13.20
2013,07,23,02,30,13.10
2013,07,23,02,31,13.10
2013,07,23,02,32,13.10
2013,07,23,02,33,13.10
2013,07,23,02,34,13.10
2013,07,23,02,35,13.10
2013,07,23,02,36,13.00
2013,07,23,02,37,13.00
2013,07,23,02,38,13.00
2013,07,23,02,39,13.00
2013,07,23,02,40,13.00
2013,07,23,02,41,13.00
2013,07,23,02,42,13.00
2013,07,23,02,43,12.90
2013,07,23,02,44,12.90
2013,07,23,02,45,12.90
2013,07,23,02,46,12.90
2013,07,23,02,47,12.90
2013,07,23,02,48,12.90
2013,07,23,02,49,12.90
2013,07,23,02,50,12.80
2013,07,23,02,51,12.80
2013,07,23,02,52,12.80
2013,07,23,02,53,12.80
2013,07,23,02,54,12.80
2013,07,23,02,55,12.80
2013,07,23,02,56,12.80
2013,07,23,02,57,12.70
2013,07,23,02,58,12.70
2013,07,23,02,59,12.70
2013,07,23,03,00,12.70
2013,07,23,03,01,12.70
2013,07,23,03,02,12.60
2013,07,23,03,03,12.60
2013,07,23,03,04,12.60
2013,07,23,03,05,12.60
2013,07,23,03,06,12.60
2013,07,23,03,07,12.60
2013,07,23,03,08,12.60
2013,07,23,03,09,12.50
2013,07,23,03,10,12.50
2013,07,23,03,11,12.50
2013,07,23,03,12,12.50
2013,07,23,03,13,12.50
2013,07,23,03,14,12.50
2013,07,23,03,15,12.50
2013,07,23,03,16,12.50
2013,07,23,03,17,12.50
2013,07,23,03,18,12.40
2013,07,23,03,19,12.40
2013,07,23,03,20,12.40
2013,07,23,03,21,12.40
2013,07,23,03,22,12.40
2013,07,23,03,23,12.40
2013,07,23,03,24,12.40
2013,07,23,03,25,12.40
2013,07,23,03,26,12.40
2013,07,23,03,27,12.40
2013,07,23,03,28,12.40
2013,07,23,03,29,12.40
2013,07,23,03,30,12.40
2013,07,23,03,31,12.40
2013,07,23,03,32,12.40
2013,07,23,03,33,12.30
2013,07,23,03,34,12.40
2013,07,23,03,35,12.40
2013,07,23,03,36,12.40
2013,07,23,03,37,12.40
2013,07,23,03,38,12.40
2013,07,23,03,39,12.40
2013,07,23,03,40,12.40
2013,07,23,03,41,12.40
2013,07,23,03,42,12.40
2013,07,23,03,43,12.40
2013,07,23,03,44,12.40
2013,07,23,03,45,12.40
2013,07,23,03,46,12.40
2013,07,23,03,47,12.40
2013,07,23,03,48,12.40
2013,07,23,03,49,12.40
2013,07,23,03,50,12.40
2013,07,23,03,51,12.40
2013,07,23,03,52,12.40
2013,07,23,03,53,12.40
2013,07,23,03,54,12.40
2013,07,23,03,55,12.40
2013,07,23,03,56,12.40
2013,07,23,03,57,12.40
2013,07,23,03,58,12.40
2013,07,23,03,59,12.40
2013,07,23,04,00,12.40
2013,07,23,04,01,12.40
2013,07,23,04,02,12.40
2013,07,23,04,03,12.40
2013,07,23,04,04,12.40
2013,07,23,04,05,12.40
2013,07,23,04,06,12.40
2013,07,23,04,07,12.40
2013,07,23,04,08,12.40
2013,07,23,04,09,12.40
2013,07,23,04,10,12.40
2013,07,23,04,11,12.40
2013,07,23,04,12,12.40
2013,07,23,04,13,12.40
2013,07,23,04,14,12.40
2013,07,23,04,15,12.40
2013,07,23,04,16,12.40
2013,07,23,04,17,12.40
2013,07,23,04,18,12.40
2013,07,23,04,19,12.40
2013,07,23,04,20,12.40
2013,07,23,04,21,12.30
2013,07,23,04,22,12.30
2013,07,23,04,23,12.30
2013,07,23,04,24,12.30
2013,07,23,04,25,12.30
2013,07,23,04,26,12.30
2013,07,23,04,27,12.30
2013,07,23,04,28,12.30
2013,07,23,04,29,12.20
2013,07,23,04,30,12.20
2013,07,23,04,31,12.20
2013,07,23,04,32,12.20
2013,07,23,04,33,12.20
2013,07,23,04,34,12.10
2013,07,23,04,35,12.10
2013,07,23,04,36,12.10
2013,07,23,04,37,12.10
2013,07,23,04,38,12.10
2013,07,23,04,39,12.10
2013,07,23,04,40,12.00
2013,07,23,04,41,12.00
2013,07,23,04,42,12.00
2013,07,23,04,43,12.00
2013,07,23,04,44,12.00
2013,07,23,04,45,12.00
2013,07,23,04,46,12.00
2013,07,23,04,47,11.90
2013,07,23,04,48,11.90
2013,07,23,04,49,11.90
2013,07,23,04,50,11.90
2013,07,23,04,51,11.90
2013,07,23,04,52,11.90
2013,07,23,04,53,11.90
2013,07,23,04,54,11.90
2013,07,23,04,55,11.90
2013,07,23,04,56,11.90
2013,07,23,04,57,11.90
2013,07,23,04,58,11.90
2013,07,23,04,59,11.90
2013,07,23,05,00,11.90
2013,07,23,05,01,11.90
2013,07,23,05,02,11.90
2013,07,23,05,03,11.90
2013,07,23,05,04,11.80
2013,07,23,05,05,11.80
2013,07,23,05,06,11.80
2013,07,23,05,07,11.80
2013,07,23,05,08,11.80
2013,07,23,05,09,11.80
2013,07,23,05,10,11.80
2013,07,23,05,11,11.80
2013,07,23,05,12,11.80
2013,07,23,05,13,11.80
2013,07,23,05,14,11.80
2013,07,23,05,15,11.80
2013,07,23,05,16,11.80
2013,07,23,05,17,11.80
2013,07,23,05,18,11.80
2013,07,23,05,19,11.80
2013,07,23,05,20,11.80
2013,07,23,05,21,11.80
2013,07,23,05,22,11.80
2013,07,23,05,23,11.80
2013,07,23,05,24,11.80
2013,07,23,05,25,11.80
2013,07,23,05,26,11.80
2013,07,23,05,27,11.80
2013,07,23,05,28,11.80
2013,07,23,05,29,11.80
2013,07,23,05,30,11.80
2013,07,23,05,31,11.80
2013,07,23,05,32,11.80
2013,07,23,05,33,11.80
2013,07,23,05,34,11.80
2013,07,23,05,35,11.80
2013,07,23,05,36,11.80
2013,07,23,05,37,11.80
2013,07,23,05,38,11.80
2013,07,23,05,39,11.80
2013,07,23,05,40,11.80
2013,07,23,05,41,11.80
2013,07,23,05,42,11.80
2013,07,23,05,43,11.80
2013,07,23,05,44,11.80
2013,07,23,05,45,11.80
2013,07,23,05,46,11.80
2013,07,23,05,47,11.80
2013,07,23,05,48,11.80
2013,07,23,05,49,11.80
2013,07,23,05,50,11.80
2013,07,23,05,51,11.80
2013,07,23,05,52,11.80
2013,07,23,05,53,11.80
2013,07,23,05,54,11.80
2013,07,23,05,55,11.80
2013,07,23,05,56,11.90
2013,07,23,05,57,11.90
2013,07,23,05,58,11.90
2013,07,23,05,59,11.90
2013,07,23,06,00,11.90
2013,07,23,06,01,11.90
2013,07,23,06,02,12.00
2013,07,23,06,03,12.00
2013,07,23,06,04,12.00
2013,07,23,06,05,12.00
2013,07,23,06,06,12.10
2013,07,23,06,07,12.10
2013,07,23,06,08,12.20
2013,07,23,06,09,12.20
2013,07,23,06,10,12.20
2013,07,23,06,11,12.20
2013,07,23,06,12,12.30
2013,07,23,06,13,12.30
2013,07,23,06,14,12.30
2013,07,23,06,15,12.40
2013,07,23,06,16,12.40
2013,07,23,06,17,12.40
2013,07,23,06,18,12.50
2013,07,23,06,19,12.50
2013,07,23,06,20,12.50
2013,07,23,06,21,12.60
2013,07,23,06,22,12.60
2013,07,23,06,23,12.60
2013,07,23,06,24,12.70
2013,07,23,06,25,12.70
2013,07,23,06,26,12.70
2013,07,23,06,27,12.80
2013,07,23,06,28,12.80
2013,07,23,06,29,12.80
2013,07,23,06,30,12.90
2013,07,23,06,31,12.90
2013,07,23,06,32,12.90
2013,07,23,06,33,13.00
2013,07,23,06,34,13.00
2013,07,23,06,35,13.10
2013,07,23,06,36,13.10
2013,07,23,06,37,13.10
2013,07,23,06,38,13.10
2013,07,23,06,39,13.10
2013,07,23,06,40,13.10
2013,07,23,06,41,13.10
2013,07,23,06,42,13.10
2013,07,23,06,43,13.20
2013,07,23,06,44,13.20
2013,07,23,06,45,13.20
2013,07,23,06,46,13.20
2013,07,23,06,47,13.20
2013,07,23,06,48,13.30
2013,07,23,06,49,13.30
2013,07,23,06,50,13.30
2013,07,23,06,51,13.30
2013,07,23,06,52,13.40
2013,07,23,06,53,13.40
2013,07,23,06,54,13.40
2013,07,23,06,55,13.50
2013,07,23,06,56,13.50
2013,07,23,06,57,13.60
2013,07,23,06,58,13.60
2013,07,23,06,59,13.60
2013,07,23,07,00,13.70
2013,07,23,07,01,13.80
2013,07,23,07,02,13.80
2013,07,23,07,03,13.90
2013,07,23,07,04,14.00
2013,07,23,07,05,14.00
2013,07,23,07,06,14.10
2013,07,23,07,07,14.10
2013,07,23,07,08,14.20
2013,07,23,07,09,14.20
2013,07,23,07,10,14.20
2013,07,23,07,11,14.30
2013,07,23,07,12,14.30
2013,07,23,07,13,14.30
2013,07,23,07,14,14.30
2013,07,23,07,15,14.40
2013,07,23,07,16,14.40
2013,07,23,07,17,14.40
2013,07,23,07,18,14.50
2013,07,23,07,19,14.60
2013,07,23,07,20,14.60
2013,07,23,07,21,14.70
2013,07,23,07,22,14.70
2013,07,23,07,23,14.80
2013,07,23,07,24,14.90
2013,07,23,07,25,14.90
2013,07,23,07,26,15.00
2013,07,23,07,27,15.00
2013,07,23,07,28,15.10
2013,07,23,07,29,15.20
2013,07,23,07,30,15.20
2013,07,23,07,31,15.30
2013,07,23,07,32,15.30
2013,07,23,07,33,15.40
2013,07,23,07,34,15.50
2013,07,23,07,35,15.60
2013,07,23,07,36,15.60
2013,07,23,07,37,15.70
2013,07,23,07,38,15.80
2013,07,23,07,39,15.80
2013,07,23,07,40,15.90
2013,07,23,07,41,15.90
2013,07,23,07,42,16.00
2013,07,23,07,43,16.10
2013,07,23,07,44,16.20
2013,07,23,07,45,16.30
2013,07,23,07,46,16.40
2013,07,23,07,47,16.50
2013,07,23,07,48,16.50
2013,07,23,07,49,16.60
2013,07,23,07,50,16.70
2013,07,23,07,51,16.80
2013,07,23,07,52,16.80
2013,07,23,07,53,16.90
2013,07,23,07,54,17.00
2013,07,23,07,55,17.10
2013,07,23,07,56,17.10
2013,07,23,07,57,17.20
2013,07,23,07,58,17.30
2013,07,23,07,59,17.30
2013,07,23,08,00,17.40
2013,07,23,08,01,17.40
2013,07,23,08,02,17.40
2013,07,23,08,03,17.50
2013,07,23,08,04,17.40
2013,07,23,08,05,17.40
2013,07,23,08,06,17.30
2013,07,23,08,07,17.30
2013,07,23,08,08,17.30
2013,07,23,08,09,17.20
2013,07,23,08,10,17.20
2013,07,23,08,11,17.20
2013,07,23,08,12,17.20
2013,07,23,08,13,17.20
2013,07,23,08,14,17.20
2013,07,23,08,15,17.10
2013,07,23,08,16,17.10
2013,07,23,08,17,17.10
2013,07,23,08,18,17.10
2013,07,23,08,19,17.10
2013,07,23,08,20,17.10
2013,07,23,08,21,17.10
2013,07,23,08,22,17.20
2013,07,23,08,23,17.20
2013,07,23,08,24,17.20
2013,07,23,08,25,17.20
2013,07,23,08,26,17.20
2013,07,23,08,27,17.30
2013,07,23,08,28,17.30
2013,07,23,08,29,17.40
2013,07,23,08,30,17.40
2013,07,23,08,31,17.50
2013,07,23,08,32,17.60
2013,07,23,08,33,17.60
2013,07,23,08,34,17.70
2013,07,23,08,35,17.80
2013,07,23,08,36,17.80
2013,07,23,08,37,17.90
2013,07,23,08,38,18.00
2013,07,23,08,39,18.10
2013,07,23,08,40,18.20
2013,07,23,08,41,18.30
2013,07,23,08,42,18.30
2013,07,23,08,43,18.40
2013,07,23,08,44,18.50
2013,07,23,08,45,18.50
2013,07,23,08,46,18.50
2013,07,23,08,47,18.50
2013,07,23,08,48,18.50
2013,07,23,08,49,18.40
2013,07,23,08,50,18.40
2013,07,23,08,51,18.40
2013,07,23,08,52,18.40
2013,07,23,08,53,18.40
2013,07,23,08,54,18.30
2013,07,23,08,55,18.30
2013,07,23,08,56,18.40
2013,07,23,08,57,18.40
2013,07,23,08,58,18.40
2013,07,23,08,59,18.40
2013,07,23,09,00,18.40
2013,07,23,09,01,18.40
2013,07,23,09,02,18.40
2013,07,23,09,03,18.40
2013,07,23,09,04,18.40
2013,07,23,09,05,18.40
2013,07,23,09,06,18.50
2013,07,23,09,07,18.50
2013,07,23,09,08,18.50
2013,07,23,09,09,18.60
2013,07,23,09,10,18.60
2013,07,23,09,11,18.60
2013,07,23,09,12,18.60
2013,07,23,09,13,18.60
2013,07,23,09,14,18.60
2013,07,23,09,15,18.60
2013,07,23,09,16,18.60
2013,07,23,09,17,18.70
2013,07,23,09,18,18.70
2013,07,23,09,19,18.80
2013,07,23,09,20,18.80
2013,07,23,09,21,18.80
2013,07,23,09,22,18.80
2013,07,23,09,23,18.90
2013,07,23,09,24,18.90
2013,07,23,09,25,18.90
2013,07,23,09,26,18.90
2013,07,23,09,27,18.90
2013,07,23,09,28,18.90
2013,07,23,09,29,18.90
2013,07,23,09,30,18.90
2013,07,23,09,31,19.00
2013,07,23,09,32,19.10
2013,07,23,09,33,19.20
2013,07,23,09,34,19.30
2013,07,23,09,35,19.40
2013,07,23,09,36,19.50
2013,07,23,09,37,19.50
2013,07,23,09,38,19.60
2013,07,23,09,39,19.60
2013,07,23,09,40,19.60
2013,07,23,09,41,19.60
2013,07,23,09,42,19.60
2013,07,23,09,43,19.60
2013,07,23,09,44,19.60
2013,07,23,09,45,19.60
2013,07,23,09,46,19.70
2013,07,23,09,47,19.70
2013,07,23,09,48,19.80
2013,07,23,09,49,19.80
2013,07,23,09,50,19.90
2013,07,23,09,51,19.90
2013,07,23,09,52,20.00
2013,07,23,09,53,20.10
2013,07,23,09,54,20.20
2013,07,23,09,55,20.30
2013,07,23,09,56,20.30
2013,07,23,09,57,20.30
2013,07,23,09,58,20.30
2013,07,23,09,59,20.20
2013,07,23,10,00,20.30
2013,07,23,10,01,20.30
2013,07,23,10,02,20.30
2013,07,23,10,03,20.20
2013,07,23,10,04,20.20
2013,07,23,10,05,20.20
2013,07,23,10,06,20.20
2013,07,23,10,07,20.20
2013,07,23,10,08,20.20
2013,07,23,10,09,20.20
2013,07,23,10,10,20.20
2013,07,23,10,11,20.20
2013,07,23,10,12,20.30
2013,07,23,10,13,20.30
2013,07,23,10,14,20.30
2013,07,23,10,15,20.40
2013,07,23,10,16,20.40
2013,07,23,10,17,20.40
2013,07,23,10,18,20.40
2013,07,23,10,19,20.50
2013,07,23,10,20,20.50
2013,07,23,10,21,20.60
2013,07,23,10,22,20.60
2013,07,23,10,23,20.70
2013,07,23,10,24,20.60
2013,07,23,10,25,20.60
2013,07,23,10,26,20.60
2013,07,23,10,27,20.50
2013,07,23,10,28,20.50
2013,07,23,10,29,20.50
2013,07,23,10,30,20.40
2013,07,23,10,31,20.40
2013,07,23,10,32,20.30
2013,07,23,10,33,20.30
2013,07,23,10,34,20.30
2013,07,23,10,35,20.40
2013,07,23,10,36,20.40
2013,07,23,10,37,20.50
2013,07,23,10,38,20.60
2013,07,23,10,39,20.80
2013,07,23,10,40,20.90
2013,07,23,10,41,20.90
2013,07,23,10,42,21.00
2013,07,23,10,43,21.10
2013,07,23,10,44,21.20
2013,07,23,10,45,21.10
2013,07,23,10,46,21.10
2013,07,23,10,47,21.10
2013,07,23,10,48,21.10
2013,07,23,10,49,21.10
2013,07,23,10,50,21.00
2013,07,23,10,51,20.90
2013,07,23,10,52,20.80
2013,07,23,10,53,20.80
2013,07,23,10,54,20.70
2013,07,23,10,55,20.70
2013,07,23,10,56,20.80
2013,07,23,10,57,20.80
2013,07,23,10,58,20.90
2013,07,23,10,59,21.00
2013,07,23,11,00,21.00
2013,07,23,11,01,20.90
2013,07,23,11,02,21.00
2013,07,23,11,03,21.00
2013,07,23,11,04,21.00
2013,07,23,11,05,21.00
2013,07,23,11,06,21.10
2013,07,23,11,07,21.10
2013,07,23,11,08,21.10
2013,07,23,11,09,21.10
2013,07,23,11,10,21.20
2013,07,23,11,11,21.30
2013,07,23,11,12,21.40
2013,07,23,11,13,21.50
2013,07,23,11,14,21.70
2013,07,23,11,15,21.80
2013,07,23,11,16,21.90
2013,07,23,11,17,21.90
2013,07,23,11,18,21.90
2013,07,23,11,19,21.90
2013,07,23,11,20,21.90
2013,07,23,11,21,21.90
2013,07,23,11,22,21.90
2013,07,23,11,23,21.90
2013,07,23,11,24,21.90
2013,07,23,11,25,21.90
2013,07,23,11,26,22.00
2013,07,23,11,27,22.00
2013,07,23,11,28,22.00
2013,07,23,11,29,21.90
2013,07,23,11,30,21.80
2013,07,23,11,31,21.80
2013,07,23,11,32,21.70
2013,07,23,11,33,21.80
2013,07,23,11,34,21.90
2013,07,23,11,35,22.00
2013,07,23,11,36,22.00
2013,07,23,11,37,22.10
2013,07,23,11,38,22.10
2013,07,23,11,39,22.20
2013,07,23,11,40,22.20
2013,07,23,11,41,22.10
2013,07,23,11,42,22.10
2013,07,23,11,43,22.10
2013,07,23,11,44,22.20
2013,07,23,11,45,22.30
2013,07,23,11,46,22.30
2013,07,23,11,47,22.30
2013,07,23,11,48,22.20
2013,07,23,11,49,22.10
2013,07,23,11,50,22.00
2013,07,23,11,51,22.10
2013,07,23,11,52,22.00
2013,07,23,11,53,22.00
2013,07,23,11,54,22.00
2013,07,23,11,55,22.00
2013,07,23,11,56,22.00
2013,07,23,11,57,22.10
2013,07,23,11,58,22.20
2013,07,23,11,59,22.30
2013,07,23,12,00,22.40
2013,07,23,12,01,22.40
2013,07,23,12,02,22.40
2013,07,23,12,03,22.40
2013,07,23,12,04,22.30
2013,07,23,12,05,22.30
2013,07,23,12,06,22.30
2013,07,23,12,07,22.30
2013,07,23,12,08,22.30
2013,07,23,12,09,22.40
2013,07,23,12,10,22.40
2013,07,23,12,11,22.40
2013,07,23,12,12,22.50
2013,07,23,12,13,22.60
2013,07,23,12,14,22.70
2013,07,23,12,15,22.80
2013,07,23,12,16,22.80
2013,07,23,12,17,22.70
2013,07,23,12,18,22.70
2013,07,23,12,19,22.70
2013,07,23,12,20,22.70
2013,07,23,12,21,22.70
2013,07,23,12,22,22.70
2013,07,23,12,23,22.70
2013,07,23,12,24,22.70
2013,07,23,12,25,22.70
2013,07,23,12,26,22.70
2013,07,23,12,27,22.60
2013,07,23,12,28,22.50
2013,07,23,12,29,22.50
2013,07,23,12,30,22.50
2013,07,23,12,31,22.40
2013,07,23,12,32,22.50
2013,07,23,12,33,22.50
2013,07,23,12,34,22.60
2013,07,23,12,35,22.60
2013,07,23,12,36,22.50
2013,07,23,12,37,22.50
2013,07,23,12,38,22.50
2013,07,23,12,39,22.50
2013,07,23,12,40,22.40
2013,07,23,12,41,22.40
2013,07,23,12,42,22.40
2013,07,23,12,43,22.40
2013,07,23,12,44,22.40
2013,07,23,12,45,22.40
2013,07,23,12,46,22.50
2013,07,23,12,47,22.50
2013,07,23,12,48,22.60
2013,07,23,12,49,22.60
2013,07,23,12,50,22.60
2013,07,23,12,51,22.70
2013,07,23,12,52,22.80
2013,07,23,12,53,22.80
2013,07,23,12,54,22.90
2013,07,23,12,55,22.90
2013,07,23,12,56,22.90
2013,07,23,12,57,22.80
2013,07,23,12,58,22.80
2013,07,23,12,59,22.80
2013,07,23,13,00,22.80
2013,07,23,13,01,22.80
2013,07,23,13,02,22.80
2013,07,23,13,03,22.80
2013,07,23,13,04,22.80
2013,07,23,13,05,22.80
2013,07,23,13,06,22.80
2013,07,23,13,07,22.70
2013,07,23,13,08,22.70
2013,07,23,13,09,22.70
2013,07,23,13,10,22.70
2013,07,23,13,11,22.70
2013,07,23,13,12,22.70
2013,07,23,13,13,22.70
2013,07,23,13,14,22.70
2013,07,23,13,15,22.70
2013,07,23,13,16,22.80
2013,07,23,13,17,22.90
2013,07,23,13,18,22.90
2013,07,23,13,19,22.90
2013,07,23,13,20,23.00
2013,07,23,13,21,23.00
2013,07,23,13,22,23.10
2013,07,23,13,23,23.10
2013,07,23,13,24,23.00
2013,07,23,13,25,23.00
2013,07,23,13,26,22.90
2013,07,23,13,27,22.90
2013,07,23,13,28,22.90
2013,07,23,13,29,23.00
2013,07,23,13,30,23.20
2013,07,23,13,31,23.30
2013,07,23,13,32,23.40
2013,07,23,13,33,23.50
2013,07,23,13,34,23.60
2013,07,23,13,35,23.70
2013,07,23,13,36,23.80
2013,07,23,13,37,23.80
2013,07,23,13,38,23.80
2013,07,23,13,39,23.80
2013,07,23,13,40,23.90
2013,07,23,13,41,23.90
2013,07,23,13,42,23.80
2013,07,23,13,43,23.80
2013,07,23,13,44,23.80
2013,07,23,13,45,23.80
2013,07,23,13,46,23.80
2013,07,23,13,47,23.80
2013,07,23,13,48,23.80
2013,07,23,13,49,23.90
2013,07,23,13,50,23.90
2013,07,23,13,51,23.90
2013,07,23,13,52,23.90
2013,07,23,13,53,23.80
2013,07,23,13,54,23.80
2013,07,23,13,55,23.80
2013,07,23,13,56,23.80
2013,07,23,13,57,23.80
2013,07,23,13,58,23.80
2013,07,23,13,59,23.80
2013,07,23,14,00,23.90
2013,07,23,14,01,24.00
2013,07,23,14,02,24.00
2013,07,23,14,03,24.10
2013,07,23,14,04,24.10
2013,07,23,14,05,24.10
2013,07,23,14,06,24.10
2013,07,23,14,07,24.10
2013,07,23,14,08,24.20
2013,07,23,14,09,24.20
2013,07,23,14,10,24.10
2013,07,23,14,11,24.00
2013,07,23,14,12,23.90
2013,07,23,14,13,23.80
2013,07,23,14,14,23.80
2013,07,23,14,15,23.80
2013,07,23,14,16,23.90
2013,07,23,14,17,23.90
2013,07,23,14,18,24.00
2013,07,23,14,19,24.00
2013,07,23,14,20,24.00
2013,07,23,14,21,24.00
2013,07,23,14,22,23.90
2013,07,23,14,23,23.80
2013,07,23,14,24,23.80
2013,07,23,14,25,23.80
2013,07,23,14,26,23.80
2013,07,23,14,27,23.90
2013,07,23,14,28,24.00
2013,07,23,14,29,24.00
2013,07,23,14,30,23.90
2013,07,23,14,31,23.90
2013,07,23,14,32,24.00
2013,07,23,14,33,24.00
2013,07,23,14,34,24.10
2013,07,23,14,35,24.20
2013,07,23,14,36,24.40
2013,07,23,14,37,24.50
2013,07,23,14,38,24.60
2013,07,23,14,39,24.60
2013,07,23,14,40,24.70
2013,07,23,14,41,24.70
2013,07,23,14,42,24.70
2013,07,23,14,43,24.70
2013,07,23,14,44,24.60
2013,07,23,14,45,24.50
2013,07,23,14,46,24.50
2013,07,23,14,47,24.50
2013,07,23,14,48,24.60
2013,07,23,14,49,24.70
2013,07,23,14,50,24.70
2013,07,23,14,51,24.70
2013,07,23,14,52,24.60
2013,07,23,14,53,24.60
2013,07,23,14,54,24.60
2013,07,23,14,55,24.70
2013,07,23,14,56,24.70
2013,07,23,14,57,24.60
2013,07,23,14,58,24.70
2013,07,23,14,59,24.70
2013,07,23,15,00,24.70
2013,07,23,15,01,24.80
2013,07,23,15,02,24.80
2013,07,23,15,03,24.90
2013,07,23,15,04,24.90
2013,07,23,15,05,24.90
2013,07,23,15,06,24.80
2013,07,23,15,07,24.80
2013,07,23,15,08,24.90
2013,07,23,15,09,24.90
2013,07,23,15,10,25.10
2013,07,23,15,11,25.10
2013,07,23,15,12,25.20
2013,07,23,15,13,25.20
2013,07,23,15,14,25.20
2013,07,23,15,15,25.30
2013,07,23,15,16,25.10
2013,07,23,15,17,24.90
2013,07,23,15,18,24.70
2013,07,23,15,19,24.60
2013,07,23,15,20,24.40
2013,07,23,15,21,24.30
2013,07,23,15,22,24.10
2013,07,23,15,23,24.00
2013,07,23,15,24,24.00
2013,07,23,15,25,23.90
2013,07,23,15,26,23.90
2013,07,23,15,27,23.90
2013,07,23,15,28,23.90
2013,07,23,15,29,23.90
2013,07,23,15,30,23.90
2013,07,23,15,31,24.00
2013,07,23,15,32,24.00
2013,07,23,15,33,24.00
2013,07,23,15,34,24.10
2013,07,23,15,35,24.10
2013,07,23,15,36,24.10
2013,07,23,15,37,24.10
2013,07,23,15,38,24.10
2013,07,23,15,39,24.10
2013,07,23,15,40,24.00
2013,07,23,15,41,24.00
2013,07,23,15,42,24.00
2013,07,23,15,43,24.10
2013,07,23,15,44,24.10
2013,07,23,15,45,24.10
2013,07,23,15,46,24.20
2013,07,23,15,47,24.20
2013,07,23,15,48,24.20
2013,07,23,15,49,24.30
2013,07,23,15,50,24.30
2013,07,23,15,51,24.40
2013,07,23,15,52,24.40
2013,07,23,15,53,24.50
2013,07,23,15,54,24.60
2013,07,23,15,55,24.60
2013,07,23,15,56,24.70
2013,07,23,15,57,24.80
2013,07,23,15,58,24.90
2013,07,23,15,59,24.90
2013,07,23,16,00,25.10
2013,07,23,16,01,25.20
2013,07,23,16,02,25.30
2013,07,23,16,03,25.40
2013,07,23,16,04,25.40
2013,07,23,16,05,25.40
2013,07,23,16,06,25.40
2013,07,23,16,07,25.40
2013,07,23,16,08,25.30
2013,07,23,16,09,25.20
2013,07,23,16,10,25.10
2013,07,23,16,11,25.00
2013,07,23,16,12,25.00
2013,07,23,16,13,24.90
2013,07,23,16,14,24.90
2013,07,23,16,15,24.90
2013,07,23,16,16,24.90
2013,07,23,16,17,24.90
2013,07,23,16,18,24.90
2013,07,23,16,19,24.90
2013,07,23,16,20,24.80
2013,07,23,16,21,24.90
2013,07,23,16,22,24.90
2013,07,23,16,23,24.90
2013,07,23,16,24,25.00
2013,07,23,16,25,25.10
2013,07,23,16,26,25.10
2013,07,23,16,27,25.20
2013,07,23,16,28,25.40
2013,07,23,16,29,25.50
2013,07,23,16,30,25.50
2013,07,23,16,31,25.60
2013,07,23,16,32,25.70
2013,07,23,16,33,25.70
2013,07,23,16,34,25.70
2013,07,23,16,35,25.70
2013,07,23,16,36,25.80
2013,07,23,16,37,25.80
2013,07,23,16,38,25.80
2013,07,23,16,39,25.80
2013,07,23,16,40,25.70
2013,07,23,16,41,25.60
2013,07,23,16,42,25.50
2013,07,23,16,43,25.50
2013,07,23,16,44,25.60
2013,07,23,16,45,25.60
2013,07,23,16,46,25.50
2013,07,23,16,47,25.50
2013,07,23,16,48,25.40
2013,07,23,16,49,25.40
2013,07,23,16,50,25.50
2013,07,23,16,51,25.60
2013,07,23,16,52,25.50
2013,07,23,16,53,25.50
2013,07,23,16,54,25.40
2013,07,23,16,55,25.40
2013,07,23,16,56,25.30
2013,07,23,16,57,25.30
2013,07,23,16,58,25.30
2013,07,23,16,59,25.20
2013,07,23,17,00,25.20
2013,07,23,17,01,25.20
2013,07,23,17,02,25.10
2013,07,23,17,03,25.00
2013,07,23,17,04,24.90
2013,07,23,17,05,24.70
2013,07,23,17,06,24.60
2013,07,23,17,07,24.40
2013,07,23,17,08,24.30
2013,07,23,17,09,24.20
2013,07,23,17,10,24.20
2013,07,23,17,11,24.20
2013,07,23,17,12,24.20
2013,07,23,17,13,24.10
2013,07,23,17,14,24.10
2013,07,23,17,15,24.00
2013,07,23,17,16,23.90
2013,07,23,17,17,23.90
2013,07,23,17,18,23.80
2013,07,23,17,19,23.70